FREGAT R/B, 41106

Orbit data source: Space-Track

FREGAT R/B, 41106 is space debris in GEO originally from a launch on Fri, 11 Dec 2015 UTC launched from the Tyuratam Missile And Space Complex (TTMTR). Debris objects in space refer to the collection of defunct objects orbiting the Earth. Examples of debris include non-operational satellites, rocket bodies, and fragments generated from explosions, collisions, or faulty payload assembly.

Loading next visibility...
FREGAT R/B details
Identifier
41106, 2015-074B
Orbit
GEO
Last TLE update10 hours ago
Origin
Flag of CISLavochkin (CIS)
ManufacturerLavochkin
MissionSpacecraft
Bus & MotorFREGAT, Unknown motor
Mass1,000 kg wet, 1,000 kg dry
Launch date (UTC)
2015-12-11 (9 years ago)
Launch vehicleUnknown
Launch site
Tyuratam Missile And Space Complex (TTMTR)
Object type
Payload
Rocket body
Debris
Shape & HBRCyl, 3.3 m
Radar Cross Section8.683 m²

Expand to show TLE details & history

TLE from 10 hours ago
0 FREGAT R/B
1 41106U 15074B   24361.12300798 -.00000199  00000-0  00000-0 0  9995
2 41106   6.8532  68.0005 0195129 344.0386  15.2340  1.02895063 33973
Epoch: 2024-12-26T02:57Z
Definitive object data (Epoch: 2024-12-26T02:57:07.889Z)
Latitude-0.00001°
Longitude-71.52726°
Altitude34,285.368 km
Speed3.16 km/s
True Right ascension04h 31m 27s
True Declination0° 00' 00"
Sunlit
Object was in daylight at TLE epoch
Visualization TLE readout
Latitude3.25336°
Longitude80.32515°
Altitude35,854.892 km
Speed3.043 km/s
Apparent Right ascension14h 56m 41s
Apparent Declination-2° 30' 00"
Sunlit
Object is in daylight
Visualization observer readout
Local Sidereal Time12:08:40
Azimuth127.329° SE
Elevation32.78°
Doppler factor1
Orbital elements
Apogee altitude35,876.662 km
Perigee altitude34,259.197 km
Semi-major axis41,446.067 km
Eccentricity0.0195129
Inclination6.8532°
RAAN68.0005°
Arg. of periapsis344.0386°
True anomaly15.83567°
Mean anomaly15.234°
Eccentric anomaly15.5334°
Mean motion0.25723 °/min
BSTARUnknown
Orbital period1399.54 mins
Loading historical data...
41106 neighbors
Authenticating...
Loading maneuver chart data...
Loading historical data...
Loading historical data...
Loading historical data...
Loading historical data...
Loading historical data...
Loading historical data...
Loading historical data...

FREGAT R/B Visibility forecast

Observer location: undefined°, undefined

Span
Click to sort rows by Start time (UTC) header in descending order
Start Az.
Max El. time (UTC)
Max El. Az.
Max El.
End time (UTC)
End Az.
1440 mins2024-12-26 12:47:06.566Z127.343° SE2024-12-26 12:47:06.566Z127.343° SE28.425°2024-12-27 12:47:06.566Z119.595° SE
|